Airport METAR Information

LTBA 270720Z 21021KT CAVOK 15/07 Q1006 NOSIG

VATSIM Livefeed

Card image cap

ATC Bookings

Position Full Name Date Time (UTC)
LTAI_APP Sebahattin Pekel 29/02/2020 1700 ‐ 2000

Card image cap

Active ATC

No controllers online

Blog

Read our latest news and get to know us better.